This demonstration page uses our WeatherBlox Daily Observations layout. Learn more.

Left ArrowRight Arrow

34.74481, -87.66753

Hourly Observations for December 5, 2022

Temp ( °F °C ) Dew Point ( °F °C ) Humidity (%) Winds ( mph kmh ) Pressure ( in mb ) Visibility ( mi km ) Precip ( " mm )
12:53 am 00:53 Cloudy 48 8.9 41 5 76 76 Calm 30.09 1019 10 16 0.00 0.00
1:53 am 01:53 Cloudy 49 9.4 40 4.4 71 71 E 3 6 30.08 1019 10 16 0.00 0.00
2:15 am 02:15 Cloudy 49 9.4 40 4.4 71 71 E 5 7 30.09 1019 10 16 0.00 0.00
2:53 am 02:53 Cloudy 49 9.4 41 5 74 74 SE 5 7 30.06 1018 10 16 0.00 0.00
3:53 am 03:53 Cloudy with Light Rain 48 8.9 43 6.1 83 83 Calm 30.04 1017 8 13 0.01 0.25
4:48 am 04:48 Cloudy with Rain 46 8 45 7 93 93 ESE 5 7 30.05 1018 4 6 0.05 1.27
4:53 am 04:53 Cloudy with Light Rain 47 8.3 44 6.7 90 90 ESE 5 7 30.04 1017 3 5 0.06 1.52
5:27 am 05:27 Cloudy with Light Rain 47 8.3 45 7.2 93 93 SE 3 6 30.05 1018 4 6 0.04 1.02
5:53 am 05:53 Cloudy with Light Rain 47 8.3 45 7.2 93 93 ESE 5 7 30.03 1017 4 6 0.05 1.27
6:11 am 06:11 Cloudy with Light Rain 47 8.3 46 7.8 97 97 ESE 5 7 30.04 1017 5 8 0.01 0.25
6:25 am 06:25 Cloudy with Light Rain 48 8.9 46 7.8 93 93 SE 6 9 30.04 1017 5 8 0.02 0.51
6:53 am 06:53 Cloudy with Light Rain 48 8.9 46 7.8 93 93 E 5 7 30.04 1017 2 3 0.04 1.02
7:10 am 07:10 Cloudy with Light Rain 48 8.9 46 7.8 93 93 E 5 7 30.05 1018 2 2 0.02 0.51
7:15 am 07:15 Cloudy with Light Rain 48 8.9 46 7.8 93 93 E 5 7 30.05 1018 3 5 0.02 0.51
7:24 am 07:24 Cloudy with Light Rain 48 8.9 46 7.8 93 93 E 5 7 30.05 1018 2 3 0.02 0.51
7:53 am 07:53 Cloudy with Mist and Fog 48 8.9 47 8.3 96 96 E 5 7 30.03 1017 2 3 0.04 1.02
8:19 am 08:19 Cloudy with Mist and Fog 49 9.4 47 8.3 93 93 E 5 7 30.04 1017 2 3 0.01 0.25
8:39 am 08:39 Cloudy with Mist and Fog 49 9.4 47 8.3 93 93 E 5 7 30.05 1018 3 5 0.01 0.25
8:53 am 08:53 Cloudy with Mist and Fog 49 9.4 48 8.9 97 97 ESE 6 9 30.03 1017 3 5 0.01 0.25
8:57 am 08:57 Cloudy with Light Rain 49 9.4 48 8.9 97 97 ESE 6 9 30.04 1017 2 3 0.02 0.51
9:13 am 09:13 Cloudy with Light Rain 50 10 48 8.9 93 93 Calm 30.05 1018 3 5 0.04 1.02
9:17 am 09:17 Cloudy with Rain 50 10 48 8.9 93 93 Calm 30.06 1018 2 3 0.07 1.78
9:26 am 09:26 Cloudy with Heavy Rain 50 10 48 8.9 93 93 ESE 6 9 30.06 1018 1 2 0.14 3.56
9:53 am 09:53 Cloudy with Rain 50 10 49 9.4 96 96 ESE 5 7 30.04 1017 2 2 0.28 7.11
10:22 am 10:22 Cloudy with Light Rain 51 10.6 50 10 96 96 SE 5 7 30.04 1017 2 3 0.03 0.76
10:33 am 10:33 Cloudy with Light Rain 51 10.6 50 10 96 96 SE 6 9 30.04 1017 2 3 0.04 1.02
10:53 am 10:53 Cloudy with Light Rain 52 11.1 51 10.6 97 97 SSE 8 13 30.01 1016 3 4 0.06 1.52
11:04 am 11:04 Cloudy with Light Rain 52 11.1 51 10.6 97 97 SSE 6 9 30.01 1016 3 5 0.01 0.25
11:17 am 11:17 Cloudy with Light Rain 52 11.1 51 10.6 97 97 SE 6 9 30.01 1016 4 6 0.03 0.76
11:27 am 11:27 Cloudy with Light Rain 53 11.7 51 10.6 93 93 SE 7 11 30.00 1016 5 8 0.04 1.02
11:53 am 11:53 Cloudy with Rain 53 11.7 52 11.1 96 96 SSE 6 9 29.98 1015 4 6 0.08 2.03
12:53 pm 12:53 Cloudy with Light Rain 54 12.2 52 11.1 93 93 SSE 6 9 29.96 1014 5 8 0.05 1.27
1:28 pm 13:28 Cloudy with Light Rain 54 12.2 52 11.1 93 93 SE 6 9 29.95 1014 4 6 0.04 1.02
1:53 pm 13:53 Cloudy with Light Rain 54 12.2 52 11.1 93 93 SE 5 7 29.93 1014 4 6 0.08 2.03
2:53 pm 14:53 Cloudy with Light Rain 55 12.8 53 11.7 93 93 SE 5 7 29.93 1014 9 14 0.07 1.78
3:03 pm 15:03 Cloudy with Heavy Rain 55 12.8 53 11.7 93 93 ESE 5 7 29.93 1014 2 3 0.05 1.27
3:12 pm 15:12 Cloudy with Heavy Rain 55 12.8 53 11.7 93 93 ESE 6 9 29.93 1014 2 3 0.09 2.29
3:22 pm 15:22 Cloudy with Rain 55 12.8 53 11.7 93 93 ESE 5 7 29.93 1014 3 5 0.13 3.30
3:30 pm 15:30 Cloudy with Light Rain 55 12.8 54 12.2 96 96 SE 5 7 29.94 1014 4 6 0.14 3.56
3:51 pm 15:51 Cloudy with Rain 55 13 54 12 94 94 ESE 6 9 29.93 1014 2 3 0.19 4.83
4:00 pm 16:00 Cloudy with Light Rain 55 12.8 54 12.2 96 96 ESE 6 9 29.93 1014 2 3 0.02 0.51
4:16 pm 16:16 Cloudy with Light Rain 55 12.8 54 12.2 96 96 SE 6 9 29.93 1014 2 2 0.05 1.27
4:39 pm 16:39 Cloudy with Rain 55 12.8 54 12.2 96 96 SE 6 9 29.93 1014 3 5 0.12 3.05
4:53 pm 16:53 Cloudy with Rain 55 12.8 54 12.2 96 96 ESE 6 9 29.93 1013 3 5 0.16 4.06
5:10 pm 17:10 Cloudy with Heavy Rain 56 13.3 54 12.2 93 93 ESE 5 7 29.93 1014 2 3 0.05 1.27
5:26 pm 17:26 Cloudy with Light Rain 56 13.3 55 12.8 97 97 ESE 6 9 29.93 1014 3 4 0.07 1.78
5:33 pm 17:33 Cloudy with Light Rain 56 13.3 55 12.8 97 97 ESE 5 7 29.93 1014 3 5 0.07 1.78
5:44 pm 17:44 Cloudy with Light Rain 56 13.3 55 12.8 97 97 E 6 9 29.93 1014 3 4 0.09 2.29
5:53 pm 17:53 Cloudy with Light Rain 56 13.3 55 12.8 97 97 E 5 7 29.93 1014 3 5 0.10 2.54
6:07 pm 18:07 Cloudy with Light Rain 56 13.3 55 12.8 97 97 E 5 7 29.93 1014 4 6 0.01 0.25
6:36 pm 18:36 Cloudy with Light Rain 56 13.3 55 12.8 97 97 ESE 5 7 29.94 1014 4 6 0.03 0.76
6:53 pm 18:53 Cloudy with Light Rain 57 13.9 55 12.8 93 93 SE 6 9 29.93 1013 3 5 0.05 1.27
7:06 pm 19:06 Cloudy with Light Rain 57 13.9 55 12.8 93 93 SE 6 9 29.94 1014 6 10 0.01 0.13
7:35 pm 19:35 Cloudy with Rain 57 13.9 56 13.3 96 96 SE 7 11 29.93 1014 3 4 0.08 2.03
7:45 pm 19:45 Cloudy with Rain 57 13.9 56 13.3 96 96 ESE 5 7 29.94 1014 3 4 0.13 3.30
7:49 pm 19:49 Cloudy with Light Rain 57 14 55 13 94 94 E 3 6 29.93 1014 3 5 0.14 3.56
7:53 pm 19:53 Cloudy with Rain 57 13.9 56 13.3 96 96 E 3 6 29.93 1013 3 5 0.15 3.81
8:42 pm 20:42 Cloudy with Light Rain 58 14.4 57 13.9 97 97 ESE 3 6 29.93 1013 6 10 0.01 0.25
8:53 pm 20:53 Cloudy 58 14.4 57 13.9 97 97 Calm 29.93 1013 10 16 0.02 0.51
9:09 pm 21:09 Cloudy 58 14.4 57 13.9 97 97 Calm 29.94 1014 8 13 0.00 0.00
9:53 pm 21:53 Cloudy 62 16.7 60 15.6 93 93 S 5 7 29.93 1014 7 11 0.00 0.00
10:02 pm 22:02 Cloudy 62 16.7 61 16.1 96 96 S 6 9 29.92 1013 7 11 0.00 0.00
10:53 pm 22:53 Cloudy 65 18.3 63 17.2 93 93 S 9 15 29.93 1014 8 13 0.00 0.00
11:53 pm 23:53 Cloudy 65 18.3 63 17.2 93 93 S 7 11 29.93 1014 7 11 0.01 0.13

Powered by AerisWeather